Location: Newark
(13.6797°N, 8.5297°E)
Time: 04:30:26
(UTC+00:00)

A-11 Canister half - Pass Details

Date: 23 January 2020
Orbit: 1517 x 1683 km, 47.2° (Epoch: 19 February)

Event Time Altitude Azimuth Distance (km) Brightness Sun altitude
Rises 07:53:05 0° 314° (NW) 4,681 11.0 25.6°
Reaches altitude 10° 07:56:06 10° 312° (NW) 3,713 10.6 26.2°
Maximum altitude 08:05:27 71° 230° (SW) 1,650 9.6 28.1°
Drops below altitude 10° 08:15:08 10° 148° (SSE) 3,838 12.3 30.1°
Sets 08:18:19 0° 146° (SE) 4,846 12.6 30.8°
